Location: Kawakawa
(35.3830°S, 174.0670°E)
Time: 23:12:45
(UTC+13:00)

Explorer 7 - Pass Details

Date: 15 December 2019
Orbit: 485 x 679 km, 50.3° (Epoch: 27 January)

Event Time Altitude Azimuth Distance (km) Brightness Sun altitude
Rises 04:56:57 0° 263° (W) 2,628 - -11.8°
Exits shadow 04:58:13 - 256° (WSW) 2,206 9.6 -11.6°
Reaches altitude 10° 04:59:55 10° 240° (WSW) 1,719 9.1 -11.4°
Maximum altitude 05:02:18 16° 202° (SSW) 1,397 9.1 -11.0°
Drops below altitude 10° 05:04:40 10° 164° (SSE) 1,699 10.2 -10.6°
Sets 05:07:34 0° 140° (SE) 2,580 12.2 -10.2°
